Regional Weather Roundup
Issued by NWS

Home | Current Version | Previous Version | Text Only | Print | Product List | Glossary On
Versions: 1 2 3 4 5 6 7 8 9 10 11 12 13 14 15 16 17 18 19 20 21 22 23 24 25 26 27 28 29 30 31 32 33 34 35 36 37 38 39 40 41 42 43 44 45 46 47 48 49 50
568
ASUS43 KLSX 211807
RWRMO

WEATHER SUMMARY FOR MISSOURI
NATIONAL WEATHER SERVICE SPRINGFIELD MO
100 PM CDT THU MAY 21 2015

NOTE: "FAIR" INDICATES FEW OR NO CLOUDS BELOW 12,000 FEET WITH NO
       SIGNIFICANT WEATHER AND/OR OBSTRUCTIONS TO VISIBILITY.
       CURRENT SKY AND/OR WEATHER CONDITIONS ARE NOT AVAILABLE FOR
       CHILLICOTHE AND FARMINGTON.

MOZ001>031-035>038-043-044-053-054-211900-
...NORTHERN AND WESTERN MISSOURI...

CITY           SKY/WX    TMP DP  RH WIND       PRES   REMARKS
KANSAS CTY INT MOSUNNY   62  45  53 VRB7      30.26F
6HR MIN TEMP:  45; 6HR MAX TEMP:  62;

KANSAS C DTWN  SUNNY     63  44  50 VRB3      30.26F
6HR MIN TEMP:  48; 6HR MAX TEMP:  63;

LEE`S SUMMIT   SUNNY     61  42  49 MISG      30.27F
6HR MIN TEMP:  47; 6HR MAX TEMP:  61;

ST JOSEPH      SUNNY     64  42  44 NW10      30.25F
6HR MIN TEMP:  45; 6HR MAX TEMP:  64;

CHILLICOTHE      N/A     65  45  48 W7        30.23F
6HR MIN TEMP:  45; 6HR MAX TEMP:  65;

KIRKSVILLE     SUNNY     64  46  52 W8        30.20F
6HR MIN TEMP:  43; 6HR MAX TEMP:  64;


$$
MOZ066>068-077>081-088>096-101>105-211900-
...SOUTHWEST MISSOURI...

CITY           SKY/WX    TMP DP  RH WIND       PRES   REMARKS
SPRINGFIELD    CLOUDY    57  44  62 VRB6      30.27S
6HR MIN TEMP:  46; 6HR MAX TEMP:  58;

JOPLIN         PTSUNNY   58  47  66 VRB5      30.28F
6HR MIN TEMP:  49; 6HR MAX TEMP:  58;


$$
MOZ032>034-039>042-045>050-055>058-069>072-211900-
...CENTRAL MISSOURI...

CITY           SKY/WX    TMP DP  RH WIND       PRES   REMARKS
COLUMBIA       MOSUNNY   60  41  49 CALM      30.24F
6HR MIN TEMP:  44; 6HR MAX TEMP:  61;

JEFFERSON CITY MOSUNNY   60  39  45 NE10      30.25S
6HR MIN TEMP:  46; 6HR MAX TEMP:  60;

ROLLA          PTSUNNY   56  44  64 NE8       30.24S
6HR MIN TEMP:  44; 6HR MAX TEMP:  56;

SEDALIA        MOSUNNY   61  44  53 NW8       30.27F
6HR MIN TEMP:  48; 6HR MAX TEMP:  62;

WHITEMAN AFB   MOSUNNY   60  41  49 N7        30.25F
WARRENSBURG    SUNNY     61  43  51 N6        30.27S
OSAGE BEACH    MOSUNNY   57  37  47 N6        30.26S

$$
MOZ051-052-059>065-211900-
...EAST CENTRAL MISSOURI...

CITY           SKY/WX    TMP DP  RH WIND       PRES   REMARKS
ST LOUIS INTL  PTSUNNY   58  41  53 NW10      30.23R
6HR MIN TEMP:  47; 6HR MAX TEMP:  60;

SPIRIT OF STL  PTSUNNY   59  43  55 NW9       30.23R
6HR MIN TEMP:  47; 6HR MAX TEMP:  59;

ST CHARLES     MOSUNNY   61  42  49 CALM      30.22R
6HR MIN TEMP:  46; 6HR MAX TEMP:  61;


$$
MOZ072>076-082>087-097>100-106>115-211900-
...SOUTH CENTRAL AND SOUTHEAST MISSOURI...

CITY           SKY/WX    TMP DP  RH WIND       PRES   REMARKS
CAPE GIRARDEAU CLOUDY    57  43  59 N10       30.22S
6HR MIN TEMP:  48; 6HR MAX TEMP:  57;

FARMINGTON     CLOUDY    50  39  66 NW8       30.28S
6HR MIN TEMP:  45; 6HR MAX TEMP:  50;

POPLAR BLUFF   LGT RAIN  54  44  69 NW12      30.24S
6HR MIN TEMP:  49; 6HR MAX TEMP:  55; 6HR PCP: TRACE;

WEST PLAINS    PTSUNNY   58  42  55 N8        30.25F
6HR MIN TEMP:  45; 6HR MAX TEMP:  58;


$$



USA.gov is the U.S. government's official web portal to all federal, state and local government web resources and services.